User: anonymous   Login
Location: Chequamegon National Forest
(46.1070°N, 90.8420°W)
Time: 07:21:37
(UTC-06:00)
Language:

ISS - Orbit

View from above orbital plane
View from above orbital plane
View from above satellite
View from above satellite

Ground track
Ground track

The orbit data is extracted from the following two-line orbital elements,

1 25544U 98067A   17024.51459918  .00016717  00000-0  10270-3 0  9047
2 25544  51.6410  34.5474 0007500 115.4298 244.7632 15.54120095 39404
Epoch (UTC): 24 January 2017 12:21:01
Eccentricity: 0.0007500
inclination: 51.6410°
perigee height: 399 km
apogee height: 410 km
right ascension of ascending node: 34.5474°
argument of perigee: 115.4298°
revolutions per day: 15.54120095
mean anomaly at epoch: 244.7632°
orbit number at epoch: 3940

The dashed part of the orbit path shows where the satellite is in the earth's shadow,  

DLR